When you browse on this site, cookies collect data to enhance your experience and personalize the content and advertising you see.
Visit our Privacy Policy to learn more. By continuing to use the site, you agree to this use of cookies and data.
  • In United Kingdom
  • List of Countries
  • For 7 days
  • Water Temperature
  • Weather Map
  • Weather Widgets
  • user-avatar
    Login

    Hourly Weather Mbandaka

    Today, 21 November, Thursday

    Time Temperature Precipitation Wind Pressure Humidity
    00:00 +23°C° 0.1 mm 0 mps 729 mmHg 92%
    01:00 +22°C° 0.1 mm 0 mps 729 mmHg 93%
    02:00 +22°C° 0.1 mm 0 mps 729 mmHg 94%
    03:00 +22°C° 0.1 mm 0 mps 729 mmHg 94%
    04:00 +22°C° 0.1 mm 0 mps 728 mmHg 95%
    05:00 +22°C° 0.1 mm 0 mps 729 mmHg 94%
    06:00 +23°C° 0.1 mm 0 mps 730 mmHg 93%
    07:00 +24°C° 0.1 mm 0 mps 731 mmHg 91%
    08:00 +28°C° 0.3 mm 1 mps 730 mmHg 83%
    09:00 +30°C° 0.3 mm 1 mps 730 mmHg 74%
    10:00 +32°C° 0.3 mm 1 mps 730 mmHg 65%
    11:00 +32°C° 2 mm 1 mps 729 mmHg 69%
    12:00 +31°C° 2 mm 1 mps 728 mmHg 74%
    13:00 +31°C° 2 mm 1 mps 728 mmHg 78%
    14:00 +30°C° 0.8 mm 1 mps 727 mmHg 81%
    15:00 +29°C° 0.8 mm 1 mps 727 mmHg 84%
    16:00 +29°C° 0.8 mm 1 mps 726 mmHg 87%
    17:00 +28°C° 0.6 mm 1 mps 727 mmHg 89%
    18:00 +26°C° 0.6 mm 1 mps 728 mmHg 92%
    19:00 +25°C° 0.6 mm 2 mps 728 mmHg 94%
    20:00 +25°C° 2.1 mm 2 mps 729 mmHg 95%
    21:00 +25°C° 2.1 mm 2 mps 729 mmHg 96%
    22:00 +24°C° 2.1 mm 2 mps 730 mmHg 97%
    23:00 +24°C° 1.4 mm 2 mps 730 mmHg 97%

    Tomorrow, 22 November, Friday

    Time Temperature Precipitation Wind Pressure Humidity
    00:00 +24°C° 1.4 mm 2 mps 730 mmHg 97%
    01:00 +24°C° 1.4 mm 2 mps 730 mmHg 97%
    02:00 +24°C° 6.5 mm 2 mps 730 mmHg 98%
    03:00 +24°C° 6.5 mm 2 mps 730 mmHg 98%
    04:00 +24°C° 6.5 mm 1 mps 729 mmHg 99%
    05:00 +24°C° 6.3 mm 2 mps 730 mmHg 98%
    06:00 +24°C° 6.3 mm 2 mps 731 mmHg 98%
    07:00 +24°C° 6.3 mm 3 mps 732 mmHg 97%
    08:00 +24°C° 0.2 mm 3 mps 732 mmHg 97%
    09:00 +24°C° 0.2 mm 3 mps 731 mmHg 97%
    10:00 +24°C° 0.2 mm 3 mps 731 mmHg 96%
    11:00 +24°C° 0.1 mm 3 mps 731 mmHg 95%
    12:00 +25°C° 0.1 mm 2 mps 731 mmHg 93%
    13:00 +25°C° 0.1 mm 2 mps 730 mmHg 91%
    14:00 +25°C° 0 mm 2 mps 730 mmHg 91%
    15:00 +24°C° 0 mm 2 mps 730 mmHg 91%
    16:00 +24°C° 0 mm 2 mps 730 mmHg 90%
    17:00 +24°C° 0 mm 2 mps 730 mmHg 91%
    18:00 +23°C° 0 mm 1 mps 731 mmHg 92%
    19:00 +23°C° 0 mm 1 mps 731 mmHg 92%
    20:00 +23°C° 0 mm 1 mps 731 mmHg 93%
    21:00 +23°C° 0 mm 1 mps 731 mmHg 93%
    22:00 +23°C° 0 mm 1 mps 732 mmHg 94%
    23:00 +23°C° 0 mm 1 mps 731 mmHg 94%

    Day after tomorrow, 23 November, Saturday

    Time Temperature Precipitation Wind Pressure Humidity
    00:00 +22°C° 0 mm 1 mps 731 mmHg 94%
    01:00 +22°C° 0 mm 1 mps 731 mmHg 94%
    02:00 +22°C° 0 mm 1 mps 731 mmHg 94%
    03:00 +22°C° 0 mm 1 mps 731 mmHg 94%
    04:00 +22°C° 0 mm 1 mps 731 mmHg 94%
    05:00 +22°C° 0 mm 1 mps 731 mmHg 93%
    06:00 +23°C° 0 mm 1 mps 732 mmHg 93%
    07:00 +23°C° 0 mm 1 mps 732 mmHg 92%
    08:00 +24°C° 0 mm 1 mps 732 mmHg 87%
    09:00 +25°C° 0 mm 1 mps 732 mmHg 83%
    10:00 +26°C° 0 mm 1 mps 733 mmHg 79%
    11:00 +26°C° 0 mm 1 mps 732 mmHg 78%
    12:00 +27°C° 0 mm 1 mps 731 mmHg 76%
    13:00 +27°C° 0 mm 2 mps 731 mmHg 75%
    14:00 +27°C° 0 mm 1 mps 730 mmHg 76%
    15:00 +27°C° 0 mm 1 mps 730 mmHg 76%
    16:00 +27°C° 0 mm 1 mps 730 mmHg 77%
    17:00 +26°C° 0 mm 1 mps 730 mmHg 82%
    18:00 +25°C° 0 mm 1 mps 730 mmHg 87%
    19:00 +22°C° 0 mm 0 mps 731 mmHg 93%
    20:00 +23°C° 0 mm 1 mps 731 mmHg 93%
    21:00 +23°C° 0 mm 1 mps 732 mmHg 94%
    22:00 +23°C° 0 mm 1 mps 732 mmHg 94%
    23:00 +23°C° 0 mm 1 mps 731 mmHg 95%

    24 November, Sunday

    Time Temperature Precipitation Wind Pressure Humidity
    00:00 +23°C° 0 mm 1 mps 731 mmHg 97%
    01:00 +22°C° 0 mm 1 mps 731 mmHg 98%
    02:00 +22°C° 0 mm 1 mps 730 mmHg 98%
    03:00 +22°C° 0 mm 1 mps 730 mmHg 98%
    04:00 +22°C° 0 mm 1 mps 730 mmHg 98%
    05:00 +22°C° 0 mm 1 mps 730 mmHg 95%
    06:00 +23°C° 0 mm 1 mps 731 mmHg 93%
    07:00 +23°C° 0 mm 1 mps 731 mmHg 90%
    08:00 +25°C° 0 mm 1 mps 731 mmHg 80%
    09:00 +27°C° 0 mm 1 mps 732 mmHg 71%
    10:00 +30°C° 0 mm 1 mps 732 mmHg 61%
    11:00 +31°C° 0 mm 1 mps 731 mmHg 56%
    12:00 +32°C° 0 mm 1 mps 730 mmHg 52%
    13:00 +34°C° 0 mm 1 mps 730 mmHg 47%
    14:00 +31°C° 0 mm 0 mps 729 mmHg 51%
    15:00 +30°C° 0 mm 0 mps 729 mmHg 55%
    16:00 +29°C° 0 mm 0 mps 729 mmHg 59%
    17:00 +27°C° 0 mm 0 mps 729 mmHg 66%
    18:00 +26°C° 0 mm 0 mps 729 mmHg 72%
    19:00 +24°C° 0 mm 0 mps 729 mmHg 79%
    20:00 +23°C° 0 mm 0 mps 730 mmHg 81%
    21:00 +23°C° 0 mm 0 mps 730 mmHg 82%
    22:00 +22°C° 0 mm 0 mps 731 mmHg 84%
    23:00 +22°C° 0 mm 0 mps 730 mmHg 85%

    25 November, Monday

    Time Temperature Precipitation Wind Pressure Humidity
    00:00 +22°C° 0 mm 0 mps 730 mmHg 86%
    01:00 +22°C° 0 mm 0 mps 730 mmHg 88%
    02:00 +21°C° 0 mm 0 mps 730 mmHg 88%
    03:00 +21°C° 0 mm 0 mps 730 mmHg 88%
    04:00 +21°C° 0 mm 0 mps 729 mmHg 88%
    05:00 +22°C° 0 mm 0 mps 730 mmHg 86%
    06:00 +22°C° 0 mm 0 mps 730 mmHg 84%
    07:00 +23°C° 0 mm 0 mps 731 mmHg 82%
    08:00 +27°C° 0 mm 1 mps 731 mmHg 74%
    09:00 +29°C° 0 mm 1 mps 731 mmHg 65%
    10:00 +31°C° 0 mm 1 mps 732 mmHg 57%
    11:00 +32°C° 0 mm 1 mps 731 mmHg 53%
    12:00 +33°C° 0 mm 1 mps 730 mmHg 49%
    13:00 +34°C° 0 mm 1 mps 729 mmHg 45%
    14:00 +34°C° 0.1 mm 1 mps 729 mmHg 49%
    15:00 +33°C° 0.1 mm 1 mps 728 mmHg 53%
    16:00 +32°C° 0.1 mm 1 mps 728 mmHg 57%
    17:00 +30°C° 0 mm 1 mps 728 mmHg 63%
    18:00 +26°C° 0 mm 0 mps 729 mmHg 70%
    19:00 +24°C° 0 mm 0 mps 729 mmHg 76%
    20:00 +24°C° 0 mm 0 mps 729 mmHg 79%
    21:00 +26°C° 0 mm 1 mps 730 mmHg 81%
    22:00 +25°C° 0 mm 1 mps 730 mmHg 84%
    23:00 +25°C° 0 mm 1 mps 730 mmHg 86%

    26 November, Tuesday

    Time Temperature Precipitation Wind Pressure Humidity
    00:00 +24°C° 0 mm 1 mps 730 mmHg 87%
    01:00 +24°C° 0 mm 1 mps 729 mmHg 89%
    02:00 +24°C° 0 mm 1 mps 729 mmHg 89%
    03:00 +23°C° 0 mm 1 mps 729 mmHg 89%
    04:00 +23°C° 0 mm 1 mps 729 mmHg 89%
    05:00 +24°C° 0 mm 1 mps 730 mmHg 86%
    06:00 +25°C° 0 mm 1 mps 730 mmHg 83%
    07:00 +25°C° 0 mm 1 mps 731 mmHg 80%
    08:00 +28°C° 0 mm 1 mps 731 mmHg 70%
    09:00 +30°C° 0 mm 1 mps 731 mmHg 60%
    10:00 +33°C° 0 mm 1 mps 731 mmHg 51%
    11:00 +33°C° 0 mm 1 mps 730 mmHg 48%
    12:00 +34°C° 0 mm 1 mps 729 mmHg 45%
    13:00 +35°C° 0 mm 1 mps 728 mmHg 42%
    14:00 +34°C° 0.1 mm 1 mps 728 mmHg 47%
    15:00 +33°C° 0.1 mm 1 mps 727 mmHg 52%
    16:00 +32°C° 0.1 mm 1 mps 727 mmHg 57%
    17:00 +31°C° 0.1 mm 1 mps 727 mmHg 62%
    18:00 +27°C° 0.1 mm 0 mps 727 mmHg 68%
    19:00 +25°C° 0.1 mm 0 mps 728 mmHg 74%
    20:00 +25°C° 0.2 mm 0 mps 728 mmHg 78%
    21:00 +24°C° 0.2 mm 0 mps 729 mmHg 82%
    22:00 +25°C° 0.2 mm 1 mps 729 mmHg 87%
    23:00 +25°C° 0 mm 1 mps 729 mmHg 87%
    Show more